THOR ABLESTAR DEB, 324

Orbit data source: Space-Track

THOR ABLESTAR DEB, 324 is space debris in LEO originally from a launch on Thu, 29 Jun 1961 UTC launched from the Air Force Eastern Test Range (AFETR). Debris objects in space refer to the collection of defunct objects orbiting the Earth. Examples of debris include non-operational satellites, rocket bodies, and fragments generated from explosions, collisions, or faulty payload assembly.

Loading next visibility...
Identifier
324, 1961-015DA
Orbit
LEO
Country
Flag of USUS
Related business
Manufacturer
Unknown
Mission
Spacecraft
Bus & Motor
Unknown
Mass
Unknown
Launch date (UTC)
1961-06-29 (65 years ago)
Launch vehicle
Unknown
Launch site
Air Force Eastern Test Range (AFETR)
Object type
Payload
Rocket body
Debris
Shape & HBR
Unknown shape, 0.1 m
Radar Cross Section
Medium (>0.1 m² and <1 m²)

Expand to show TLE details & history
Last TLE update: 16 hours ago

TLE from 16 hours ago
0 THOR ABLESTAR DEB
1   324U 61015DA  26256.09138573  .00000475  00000-0  28811-3 0  9998
2   324  66.8698 168.7847 0071465 318.0519  41.5110 14.13474401335490
Epoch: 2026-09-13T02:11Z
TLE epoch observation values (Epoch: 2026-09-13T02:11:35.727Z)
Latitude
-0.00001°
Longitude
143.79482°
Altitude
811.102 km
Speed
7.468 km/s
True Right ascension
11h 15m 08s
True Declination
0° 00' 00"
Sunlit
Object was in daylight at epoch
Visualization orbit readout
Latitude
Unknown
Longitude
Unknown
Altitude
Unknown
Speed
Unknown
Apparent Right ascension
Unknown
Apparent Declination
Unknown
Sunlit
N/A
Visualization observer readout
Local Sidereal Time
10:29:39
Azimuth
Unknown
Elevation
Unknown
Doppler factor
Unknown
Orbital elements
Apogee altitude
897.501 km
Perigee altitude
794.248 km
Semi-major axis
7,224.012 km
Eccentricity
0.00715
Inclination
66.8698°
RAAN
168.7847°
Arg. of periapsis
318.0519°
True anomaly
42.0574°
Mean anomaly
41.511°
Eccentric anomaly
41.78384°
Mean motion
3.53489 °/min
Orbital period
101.84 mins
BSTAR
0.00028811

Documentation

Showing up to 5 results
|